Torna al catalogo

COSMOS 970 DEB

AttivoLEO
NORAD 10566·DEBRIS·🇷🇺 Russia

Lanciato Dec 21, 1977 da Baikonur Cosmodrome

Loading…

Prossimi Passaggi (prossime 24 ore)

TLE

AggiornatoSource: Space-Track

Epoca: Sep 13, 2026, 19:01 UTC

1 10566U 77121H   26256.79284689  .00000270  00000-0  48766-3 0  9993
2 10566  65.7690  34.7868 0409874 218.3043 138.8224 13.26643336340723

Traccia COSMOS 970 DEB in tempo reale con AllMySat

Download on the App Store